TimeCDT,TemperatureF,Dew PointF,Humidity,Sea Level PressureIn,VisibilityMPH,Wind Direction,Wind SpeedMPH,Gust SpeedMPH,PrecipitationIn,Events,Conditions,WindDirDegrees,DateUTC
12:53 AM,68.0,59.0,73,30.08,10.0,SSE,16.1,-,N/A,,Mostly Cloudy,150,2013-08-18 05:53:00
1:53 AM,66.0,59.0,78,30.09,10.0,SSE,11.5,-,N/A,,Clear,150,2013-08-18 06:53:00
2:53 AM,64.0,59.0,84,30.07,10.0,SSE,11.5,-,N/A,,Partly Cloudy,150,2013-08-18 07:53:00
3:53 AM,63.0,59.0,87,30.07,10.0,SSE,10.4,-,N/A,,Partly Cloudy,150,2013-08-18 08:53:00
4:53 AM,63.0,59.0,87,30.07,10.0,SSE,8.1,-,N/A,,Partly Cloudy,160,2013-08-18 09:53:00
5:53 AM,63.0,59.0,87,30.07,10.0,SSE,11.5,-,N/A,,Mostly Cloudy,160,2013-08-18 10:53:00
6:53 AM,63.0,59.0,87,30.08,10.0,SSE,10.4,-,N/A,,Overcast,160,2013-08-18 11:53:00
7:53 AM,64.9,59.0,81,30.09,10.0,SSE,10.4,26.5,N/A,,Overcast,160,2013-08-18 12:53:00
8:53 AM,66.0,59.0,78,30.10,10.0,North,-9999.0,-,N/A,,Mostly Cloudy,0,2013-08-18 13:53:00
9:53 AM,68.0,60.1,76,30.10,10.0,SSE,16.1,-,N/A,,Overcast,160,2013-08-18 14:53:00
10:53 AM,71.1,60.1,68,30.09,10.0,South,16.1,31.1,N/A,,Overcast,170,2013-08-18 15:53:00
11:53 AM,73.9,62.1,66,30.09,10.0,SSE,19.6,-,N/A,,Overcast,160,2013-08-18 16:53:00
12:53 PM,77.0,64.0,64,30.07,10.0,South,16.1,-,N/A,,Partly Cloudy,170,2013-08-18 17:53:00
1:53 PM,79.0,64.0,60,30.05,10.0,SSE,17.3,-,N/A,,Partly Cloudy,150,2013-08-18 18:53:00
2:53 PM,80.1,64.9,60,30.03,10.0,SE,16.1,-,N/A,,Partly Cloudy,130,2013-08-18 19:53:00
3:53 PM,80.1,64.9,60,30.01,10.0,North,-9999.0,-,N/A,,Partly Cloudy,0,2013-08-18 20:53:00
4:53 PM,80.1,64.0,58,30.00,10.0,SSE,17.3,24.2,N/A,,Scattered Clouds,150,2013-08-18 21:53:00
5:53 PM,80.1,63.0,56,29.99,10.0,SSE,16.1,-,N/A,,Partly Cloudy,150,2013-08-18 22:53:00
6:53 PM,79.0,64.0,60,29.99,10.0,WNW,19.6,35.7,N/A,,Clear,290,2013-08-18 23:53:00
7:53 PM,75.9,64.0,67,30.00,10.0,SSE,9.2,-,N/A,,Clear,150,2013-08-19 00:53:00
8:53 PM,73.0,63.0,71,30.02,10.0,SE,9.2,-,N/A,,Clear,130,2013-08-19 01:53:00
9:53 PM,71.1,63.0,75,30.05,10.0,SE,8.1,-,N/A,,Clear,130,2013-08-19 02:53:00
10:53 PM,70.0,62.1,76,30.04,10.0,SE,10.4,-,N/A,,Clear,140,2013-08-19 03:53:00
11:53 PM,69.1,62.1,78,30.05,10.0,SE,10.4,-,N/A,,Clear,140,2013-08-19 04:53:00